Change the Weather History Date:

Saturday, June 8, 2013

  Actual Average Record
Temperature  
Mean Temperature 66 °F 60 °F  
Max Temperature 80 °F 72 °F 98 °F (1955)
Min Temperature 51 °F 48 °F 36 °F (1975)
Degree Days  
Heating Degree Days 0 5  
Month to date heating degree days 11 46  
Since 1 June heating degree days 11 46  
Since 1 July heating degree days 4211 4569  
Cooling Degree Days 1 0  
Month to date cooling degree days 11 3  
Year to date cooling degree days 21 12  
Since 1 June cooling degree days 11 3  
Growing Degree Days 16 (Base 50)    
Moisture  
Dew Point 48 °F    
Average Humidity 61    
Maximum Humidity 93    
Minimum Humidity 28    
Precipitation  
Precipitation 0.00 in 0.07 in 0.89 in (1927)
Month to date precipitation T 0.55  
Year to date precipitation 10.59 20.09  
Snow  
Snow 0.00 in - - ()
Month to date snowfall 0.0  
Since 1 June snowfall 0.0  
Snow Depth 0.00 in    
Sea Level Pressure  
Sea Level Pressure 30.11 in    
Wind  
Wind Speed 8 mph (North)    
Max Wind Speed 14 mph    
Max Gust Speed 17 mph    
Visibility 10 miles    
Events      
T = Trace of Precipitation, MM = Missing Value Source: NWS Daily Summary

Daily Weather History Graph

Daily Weather History Graph

Search for Another Location

Airport or City:

Trip Planner

Search our weather history database for the weather conditions in past years. The results will help you decide how hot, cold, wet, or windy it might be!

Date:

Astronomy

Jun. 08, 2013 Rise Set
Actual Time 5:25 AM PDT 8:56 PM PDT
Civil Twilight 4:49 AM PDT 9:33 PM PDT
Nautical Twilight 4:00 AM PDT 10:22 PM PDT
Astronomical Twilight 2:57 AM PDT 11:25 PM PDT
Moon 5:40 AM PDT (6/8) 9:00 PM PDT (6/8)
Length of Visible Light 16h 44m
Length of Day
15h 30m
New Moon, 0% of the Moon is Illuminated
Jun 8
New Moon
Jun 16
First Quarter
Jun 23
Full
Jun 29
Last Quarter
Jul 8
New

Hourly Weather History & Observations

Time (PDT) Temp. Dew Point Humidity Pressure Visibility Wind Dir Wind Speed Gust Speed Precip Events Conditions
12:56 AM 55.9 °F 53.1 °F 90% 30.14 in 10.0 mi NNW 6.9 mph - N/A   Clear
1:56 AM 55.0 °F 52.0 °F 89% 30.14 in 10.0 mi NNW 6.9 mph - N/A   Clear
2:56 AM 53.1 °F 48.9 °F 86% 30.14 in 10.0 mi NNW 5.8 mph - N/A   Clear
3:56 AM 52.0 °F 46.9 °F 83% 30.15 in 10.0 mi North 4.6 mph - N/A   Clear
4:56 AM 51.1 °F 46.9 °F 86% 30.15 in 10.0 mi North 4.6 mph - N/A   Clear
5:56 AM 52.0 °F 48.0 °F 86% 30.16 in 10.0 mi North 8.1 mph - N/A   Clear
6:56 AM 54.0 °F 48.9 °F 83% 30.17 in 10.0 mi NNE 6.9 mph - N/A   Clear
7:56 AM 55.9 °F 48.9 °F 77% 30.17 in 10.0 mi North 11.5 mph - N/A   Clear
8:56 AM 59.0 °F 48.0 °F 67% 30.17 in 10.0 mi North 12.7 mph - N/A   Clear
9:56 AM 63.0 °F 48.0 °F 58% 30.16 in 10.0 mi North 5.8 mph - N/A   Clear
10:56 AM 66.0 °F 48.0 °F 52% 30.14 in 10.0 mi NNW 9.2 mph - N/A   Clear
11:56 AM 69.1 °F 46.9 °F 45% 30.14 in 10.0 mi North 6.9 mph - N/A   Clear
12:56 PM 72.0 °F 41.0 °F 33% 30.12 in 10.0 mi North 8.1 mph - N/A   Clear
1:56 PM 75.9 °F 42.1 °F 30% 30.11 in 10.0 mi North 9.2 mph - N/A   Clear
2:56 PM 78.1 °F 43.0 °F 29% 30.09 in 10.0 mi North 8.1 mph - N/A   Clear
3:56 PM 79.0 °F 43.0 °F 28% 30.08 in 10.0 mi NNE 6.9 mph - N/A   Clear
4:56 PM 80.1 °F 46.0 °F 30% 30.06 in 10.0 mi North 8.1 mph - N/A   Clear
5:56 PM 79.0 °F 48.9 °F 35% 30.05 in 10.0 mi North 10.4 mph - N/A   Clear
6:56 PM 78.1 °F 51.1 °F 39% 30.04 in 10.0 mi North 8.1 mph - N/A   Clear
7:56 PM 77.0 °F 51.1 °F 40% 30.03 in 10.0 mi North 8.1 mph - N/A   Clear
8:56 PM 70.0 °F 51.1 °F 51% 30.03 in 10.0 mi NW 8.1 mph - N/A   Clear
9:56 PM 66.9 °F 48.9 °F 52% 30.05 in 10.0 mi NW 5.8 mph - N/A   Clear
10:56 PM 63.0 °F 48.9 °F 60% 30.06 in 10.0 mi North 4.6 mph - N/A   Clear
11:56 PM 60.1 °F 48.0 °F 64% 30.06 in 10.0 mi North 5.8 mph - N/A   Clear